Location: Middlebury
(44.0153°N, 73.1678°W)
Time: 20:45:56
(UTC-04:00)

DIWATA 2B (PO-101) - Pass Details

Date: 27 June 2024
Orbit: 575 x 586 km, 98.1° (Epoch: 23 July)

Event Time Altitude Azimuth Distance (km) Brightness Sun altitude
Rises 03:35:31 0° 138° (SE) 2,778 ? -13.4°
Reaches altitude 10° 03:37:52 10° 126° (SE) 1,885 ? -13.1°
Maximum altitude 03:41:21 28° 68° (ENE) 1,109 ? -12.8°
Drops below altitude 10° 03:44:51 10° 9° (N) 1,902 ? -12.4°
Sets 03:47:14 0° 358° (N) 2,808 ? -12.1°
